Location: Sungai Ketit
(2.6833°N, 113.2333°E)
Time: 21:39:31
(UTC+00:00)

deb Centaur AC-2 - Pass Details

Date: 23 May 2024
Orbit: 583 x 1344 km, 30.0° (Epoch: 19 June)

Event Time Altitude Azimuth Distance (km) Brightness Sun altitude
Rises 11:10:33 0° 233° (SW) 2,992 8.0 -9.9°
Reaches altitude 10° 11:13:03 10° 229° (SW) 2,003 7.1 -10.5°
Maximum altitude 11:17:32 62° 148° (SSE) 661 4.0 -11.5°
Drops below altitude 10° 11:21:46 10° 67° (ENE) 1,885 6.1 -12.5°
Enters shadow 11:21:56 - 67° (ENE) 1,954 6.2 -12.6°
